Location: Arrodets-la-Barthe
(43.0306°N, 0.2829°E)
Time: 13:35:38
(UTC+00:00)

Cosmos 2360 Rocket - Pass Details

Date: 24 October 2021
Orbit: 832 x 846 km, 71.0° (Epoch: 07 December)

Event Time Altitude Azimuth Distance (km) Brightness Sun altitude
Rises 18:12:16 0° 186° (S) 3,371 5.5 -13.5°
Reaches altitude 10° 18:14:46 10° 180° (S) 2,443 4.7 -13.9°
Maximum altitude 18:20:07 48° 108° (ESE) 1,089 2.4 -14.9°
Drops below altitude 10° 18:25:32 10° 35° (NE) 2,468 4.3 -15.9°
Enters shadow 18:26:31 - 33° (NNE) 2,832 4.6 -16.1°
